Weather History for Grantley Adams, Barbados

Change the Weather History Date:

Friday, August 3, 2012

  Actual Average Record
Temperature  
Mean Temperature 74 °F -  
Max Temperature 82 °F 85 °F 90 °F (2013)
Min Temperature 66 °F 76 °F 66 °F (2012)
Cooling Degree Days 9    
Growing Degree Days 24 (Base 50)    
Moisture  
Dew Point 76 °F    
Average Humidity 95    
Maximum Humidity 100    
Minimum Humidity 86    
Precipitation  
Precipitation 1.14 in - - ()
Sea Level Pressure  
Sea Level Pressure 29.89 in    
Wind  
Wind Speed 17 mph ()    
Max Wind Speed 43 mph    
Max Gust Speed 53 mph    
Visibility 5.0 miles    
Events Rain , Thunderstorm    
Averages and records for this station are not official NWS values.
T = Trace of Precipitation, MM = Missing Value Source: Averaged Metar Reports

Daily Weather History Graph

Daily Weather History Graph

Search for Another Location

Airport:

Trip Planner

Search our weather history database for the weather conditions in past years. The results will help you decide how hot, cold, wet, or windy it might be!

Date:

Astronomy

Aug. 03, 2012 Rise Set
Actual Time 5:43 AM AST 6:24 PM AST
Civil Twilight 5:21 AM AST 6:46 PM AST
Nautical Twilight 4:55 AM AST 7:12 PM AST
Astronomical Twilight 4:28 AM AST 7:39 PM AST
Moon 7:32 PM AST (8/3) 6:55 AM AST (8/3)
Length of Visible Light 13h 25m
Length of Day
12h 40m
Full, 97% of the Moon is Illuminated
Aug 3
Full
Aug 9
Last Quarter
Aug 17
New
Aug 24
First Quarter
Aug 31
Full

Hourly Weather History & Observations

Time (AST) Temp. Heat Index Dew Point Humidity Pressure Visibility Wind Dir Wind Speed Gust Speed Precip Events Conditions
12:00 AM 77.0 °F - 77.0 °F 100% 29.83 in 6.2 mi East 6.9 mph - N/A   Mostly Cloudy
1:00 AM 77.0 °F - 77.0 °F 100% 29.80 in 6.2 mi WSW 5.8 mph - N/A Thunderstorm Mostly Cloudy
2:00 AM 76 °F - 76 °F 100% 29.77 in 11 mi NW 6.9 mph - -   Mostly Cloudy
2:00 AM 77.0 °F - 77.0 °F 100% 29.77 in 6.2 mi NW 6.9 mph - N/A Thunderstorm Mostly Cloudy
3:00 AM 78.8 °F - 77.0 °F 94% 29.77 in 6.2 mi South 21.9 mph - N/A Thunderstorm Mostly Cloudy
4:00 AM 78.8 °F - 77.0 °F 94% 29.80 in 6.2 mi South 23.0 mph - N/A Thunderstorm Mostly Cloudy
5:00 AM 80 °F - 76 °F 86% 29.81 in 9 mi South 23.0 mph - -   Overcast
5:00 AM 78.8 °F - 77.0 °F 94% 29.80 in 6.2 mi South 23.0 mph - N/A Thunderstorm Mostly Cloudy
6:00 AM 80.6 °F 87.1 °F 77.0 °F 89% 29.83 in 6.2 mi South 28.8 mph - N/A   Mostly Cloudy
7:00 AM 77.0 °F - 75.2 °F 94% 29.86 in 6.2 mi South 42.6 mph - N/A Rain Light Rain Showers
8:00 AM 79 °F - 77 °F 92% 29.90 in 2 mi SSE 28.8 mph - - Rain Light Rain Showers
8:00 AM 78.8 °F - 77.0 °F 94% 29.89 in 1.9 mi SSE 28.8 mph 47.2 mph N/A Rain Light Rain Showers
9:00 AM 78.8 °F - 77.0 °F 94% 29.92 in 3.7 mi East 20.7 mph - N/A Rain Light Rain
10:00 AM 80.6 °F 87.1 °F 77.0 °F 89% 29.92 in 5.0 mi South 32.2 mph - N/A Rain Light Rain
11:00 AM 78 °F - 77 °F 96%  in 3 mi SE 29.9 mph - -   Overcast
11:10 AM 78.8 °F - 77.0 °F 94% 29.92 in 1.2 mi SE 29.9 mph - N/A Rain Rain
12:00 PM 77.0 °F - 77.0 °F 100% 29.92 in 4.3 mi South 21.9 mph - N/A Rain Rain
1:00 PM 77.0 °F - 77.0 °F 100% 29.92 in 1.2 mi SSW 38.0 mph 52.9 mph N/A Rain Heavy Rain
2:00 PM 75 °F - 75 °F 99% 29.92 in 2 mi SSW 29.9 mph - - Rain Heavy Rain Showers
2:00 PM 75.2 °F - 75.2 °F 100% 29.92 in 1.9 mi SSW 317.6 mph 43.7 mph N/A Rain Rain Showers
3:00 PM 77.0 °F - 77.0 °F 100% 29.92 in 1.9 mi South 24.2 mph - N/A Rain Rain Showers
4:00 PM 75.2 °F - 75.2 °F 100% 29.92 in 2.5 mi South 24.2 mph - N/A Rain Light Rain Showers
5:00 PM 76 °F - 76 °F 100% 29.91 in 4 mi South 15.0 mph - - Rain Light Rain
5:00 PM 77.0 °F - 77.0 °F 100% 29.92 in 3.7 mi South 15.0 mph - N/A Rain Light Rain
6:00 PM 78.8 °F - 78.8 °F 100% 29.92 in 5.6 mi South 15.0 mph - N/A   Mostly Cloudy
7:00 PM 77.0 °F - 75.2 °F 94% 29.95 in 5.0 mi ESE 16.1 mph - N/A Rain Light Rain
8:00 PM 78 °F - 76 °F 91% 29.96 in 6 mi East 5.8 mph - - Rain Light Rain Showers
8:00 PM 77.0 °F - 75.2 °F 94% 29.95 in 6.2 mi East 5.8 mph - N/A   Mostly Cloudy
9:00 PM 78.8 °F - 75.2 °F 89% 29.98 in 6.2 mi ESE 16.1 mph - N/A   Overcast
10:00 PM 80.6 °F 87.1 °F 77.0 °F 89% 29.98 in 6.2 mi SE 13.8 mph - N/A   Mostly Cloudy
11:00 PM 80 °F - 76 °F 86% 29.99 in 12 mi SE 17.3 mph - -  
11:00 PM 80.6 °F 87.1 °F 77.0 °F 89% 29.98 in 6.2 mi SE 17.3 mph - N/A   Mostly Cloudy